Location: ??
(35.1714°N, 128.2806°E)
Time: 15:05:58
(UTC+00:00)

H-2A R/B - Pass Details

Date: 29 October 2020
Orbit: 577 x 656 km, 98.5° (Epoch: 01 December)

Event Time Altitude Azimuth Distance (km) Brightness Sun altitude
Rises 19:47:37 0° 174° (S) 2,953 5.6 -24.7°
Reaches altitude 10° 19:49:51 10° 178° (S) 2,039 4.7 -24.3°
Enters shadow 19:51:58 27° 188° (S) 1,233 3.5 -23.9°
